2001 QO142 

Epoch 2001 Sep. 8.0 TT = JDT 2452160.5                  Nakano

M 331.29246              (2000.0)            P               Q

n   0.31806901     Peri.  199.96928     -0.21120874     -0.97279841

a   2.1254708      Node   262.31559     +0.90932323     -0.15985118

e   0.7460253      Incl.    5.50977     +0.35849985     -0.16766292

P   3.10           H   18.9           G   0.15           U   *

Residuals in seconds of arc 

010825 704  0.2+  0.0     010826 557  1.0-  0.6+    010907 649  0.3+  0.2-  

010825 704  0.2-  0.3+    010826 557  0.0   0.2+    010907 649  0.4-  0.1-  

010825 704  0.3-  0.8+    010827 711  0.5-  0.2-    010908 658  0.4-  0.7-  

010826 658  0.5-  1.0-    010827 711  0.9+  0.2+    010908 658  0.5-  0.3-  

010826 658  0.6+  0.1+    010827 711  0.1+  0.6-    010908 658  0.3-  0.7-  

010826 658  0.8-  0.3-    010829 649  0.3-  0.1+    010918 360  0.1+  0.2-  

010826 046  0.2-  1.3-    010829 649  0.8+  1.5+    010918 360  0.1+  0.3+  

010826 046  0.3+  1.0-    010829 649  0.3+  0.3+    010918 360  0.1-  0.2+  

010826 557  0.5+  1.0+    010907 649  1.0+  1.3+                            

  

NAKANO

         **** Don't distribute anyone except personal use only ****

                (C) Copyright 2001 OAA/ComputingSection

write mail from CFAD0::NAKANO on 2001-09-20 05:22:07(JST).

 





–ß‚è‚Ü‚·B